Satellite: LO-19
Catalog number: 20442
Epoch time:      05160.53422534
Element set:     412
Inclination:      098.2236 deg
RA of node:       194.9587 deg
Eccentricity:    0.0011044
Arg of perigee:   222.3116 deg
Mean anomaly:     137.7230 deg
Mean motion:   14.31924228 rev/day
Decay rate:        5.2e-07 rev/day^2
Epoch rev:           80312
Checksum:              260

Satellite: UO-22
Catalog number: 21575
Epoch time:      05160.41812010
Element set:     425
Inclination:      098.2425 deg
RA of node:       126.0436 deg
Eccentricity:    0.0008543
Arg of perigee:   111.2308 deg
Mean anomaly:     248.9806 deg
Mean motion:   14.39489607 rev/day
Decay rate:        6.2e-07 rev/day^2
Epoch rev:           72938
Checksum:              288

Satellite: KO-23
Catalog number: 22077
Epoch time:      05159.82314686
Element set:     491
Inclination:      066.0848 deg
RA of node:       163.9688 deg
Eccentricity:    0.0015802
Arg of perigee:   258.6359 deg
Mean anomaly:     101.2895 deg
Mean motion:   12.86430987 rev/day
Decay rate:       -3.7e-07 rev/day^2
Epoch rev:           60251
Checksum:              332

Satellite: AO-27
Catalog number: 22825
Epoch time:      05159.51435860
Element set:     150
Inclination:      098.2503 deg
RA of node:       155.4713 deg
Eccentricity:    0.0007455
Arg of perigee:   293.5035 deg
Mean anomaly:     066.5438 deg
Mean motion:   14.29131957 rev/day
Decay rate:        4.5e-07 rev/day^2
Epoch rev:           60998
Checksum:              313

Satellite: IO-26
Catalog number: 22826
Epoch time:      05160.03745061
Element set:     820
Inclination:      098.2464 deg
RA of node:       157.2514 deg
Eccentricity:    0.0008204
Arg of perigee:   290.0439 deg
Mean anomaly:     069.9860 deg
Mean motion:   14.29372542 rev/day
Decay rate:        3.5e-07 rev/day^2
Epoch rev:           61012
Checksum:              281

Satellite: KO-25
Catalog number: 22828
Epoch time:      05160.45643305
Element set:      68
Inclination:      098.2431 deg
RA of node:       157.8491 deg
Eccentricity:    0.0009051
Arg of perigee:   265.2034 deg
Mean anomaly:     094.8112 deg
Mean motion:   14.29685278 rev/day
Decay rate:        3.1e-07 rev/day^2
Epoch rev:           57841
Checksum:              301

Satellite: TO-31
Catalog number: 25396
Epoch time:      05160.18723825
Element set:     268
Inclination:      098.5295 deg
RA of node:       227.6770 deg
Eccentricity:    0.0002561
Arg of perigee:   178.1237 deg
Mean anomaly:     181.9966 deg
Mean motion:   14.23671655 rev/day
Decay rate:       -4.2e-07 rev/day^2
Epoch rev:           35927
Checksum:              329

Satellite: GO-32
Catalog number: 25397
Epoch time:      05160.19801718
Element set:     757
Inclination:      098.5196 deg
RA of node:       225.2200 deg
Eccentricity:    0.0001291
Arg of perigee:   167.8387 deg
Mean anomaly:     192.2824 deg
Mean motion:   14.23081296 rev/day
Decay rate:       1.64e-06 rev/day^2
Epoch rev:           35919
Checksum:              313

Satellite: UO-36
Catalog number: 25693
Epoch time:      05160.83076400
Element set:     272
Inclination:      064.5565 deg
RA of node:       306.2986 deg
Eccentricity:    0.0025568
Arg of perigee:   214.0131 deg
Mean anomaly:     145.9334 deg
Mean motion:   14.78510218 rev/day
Decay rate:       -2.0e-08 rev/day^2
Epoch rev:           33073
Checksum:              285

Satellite: SO-41
Catalog number: 26545
Epoch time:      05160.40867004
Element set:      94
Inclination:      064.5587 deg
RA of node:       321.8898 deg
Eccentricity:    0.0048054
Arg of perigee:   307.1286 deg
Mean anomaly:     052.5433 deg
Mean motion:   14.80106043 rev/day
Decay rate:       2.62e-06 rev/day^2
Epoch rev:           25377
Checksum:              296

Satellite: MO-46
Catalog number: 26548
Epoch time:      05159.82615385
Element set:     202
Inclination:      064.5575 deg
RA of node:       306.3459 deg
Eccentricity:    0.0044964
Arg of perigee:   299.6278 deg
Mean anomaly:     060.0353 deg
Mean motion:   14.82735044 rev/day
Decay rate:       2.95e-06 rev/day^2
Epoch rev:           25404
Checksum:              325

Satellite: SO-42
Catalog number: 26549
Epoch time:      05160.52791648
Element set:     158
Inclination:      064.5571 deg
RA of node:       330.1042 deg
Eccentricity:    0.0049563
Arg of perigee:   311.6313 deg
Mean anomaly:     048.0565 deg
Mean motion:   14.78985039 rev/day
Decay rate:       1.78e-06 rev/day^2
Epoch rev:           25362
Checksum:              312

Satellite: NO-44
Catalog number: 26931
Epoch time:      05160.48217508
Element set:      54
Inclination:      067.0530 deg
RA of node:       247.6363 deg
Eccentricity:    0.0006158
Arg of perigee:   258.0491 deg
Mean anomaly:     101.9891 deg
Mean motion:   14.29384944 rev/day
Decay rate:       -6.5e-07 rev/day^2
Epoch rev:           19266
Checksum:              310

Satellite: AO-49
Catalog number: 27605
Epoch time:      05160.44992444
Element set:     757
Inclination:      064.5565 deg
RA of node:       158.8543 deg
Eccentricity:    0.0082291
Arg of perigee:   241.6129 deg
Mean anomaly:     117.6654 deg
Mean motion:   14.72096112 rev/day
Decay rate:       1.10e-06 rev/day^2
Epoch rev:           13271
Checksum:              305

Satellite: SO-50
Catalog number: 27607
Epoch time:      05160.28627517
Element set:     738
Inclination:      064.5567 deg
RA of node:       164.9495 deg
Eccentricity:    0.0082613
Arg of perigee:   240.6072 deg
Mean anomaly:     118.6719 deg
Mean motion:   14.70972229 rev/day
Decay rate:        6.3e-07 rev/day^2
Epoch rev:           13257
Checksum:              321

